Regional Weather Roundup
Issued by NWS

Home | Current Version | Previous Version | Graphics & Text | Print | Product List | Glossary On
Versions: 1 2 3 4 5 6 7 8 9 10 11 12 13 14 15 16 17 18 19 20 21 22 23 24 25 26 27 28 29 30 31 32 33 34 35 36 37 38 39 40 41 42 43 44 45 46 47 48 49 50
000
ASUS43 KLSX 252359
RWRMO

WEATHER SUMMARY FOR MISSOURI
NATIONAL WEATHER SERVICE SPRINGFIELD MO
700 PM CDT SAT OCT 25 2014

NOTE: "FAIR" INDICATES FEW OR NO CLOUDS BELOW 12,000 FEET WITH NO
       SIGNIFICANT WEATHER AND/OR OBSTRUCTIONS TO VISIBILITY.
       CURRENT SKY AND/OR WEATHER CONDITIONS ARE NOT AVAILABLE FOR
       CHILLICOTHE AND FARMINGTON.

MOZ001>031-035>038-043-044-053-054-260100-
...NORTHERN AND WESTERN MISSOURI...

CITY           SKY/WX    TMP DP  RH WIND       PRES   REMARKS
KANSAS CTY INT CLEAR     70  54  56 NE6       30.01F
6HR MIN TEMP:  70; 6HR MAX TEMP:  80;

KANSAS C DTWN  CLEAR     71  55  56 E3        30.00S
6HR MIN TEMP:  71; 6HR MAX TEMP:  82;

LEE`S SUMMIT   CLEAR     73  57  57 E6        30.02S
6HR MIN TEMP:  73; 6HR MAX TEMP:  81;

ST JOSEPH      CLEAR     68  49  50 E6        30.01F
6HR MIN TEMP:  68; 6HR MAX TEMP:  81;

KIRKSVILLE     CLEAR     65  47  52 NE5       30.04S
6HR MIN TEMP:  64; 6HR MAX TEMP:  78;


$$
MOZ066>068-077>081-088>096-101>105-260100-
...SOUTHWEST MISSOURI...

CITY           SKY/WX    TMP DP  RH WIND       PRES   REMARKS
SPRINGFIELD    CLEAR     69  62  78 CALM      30.03F
6HR MIN TEMP:  69; 6HR MAX TEMP:  83;

JOPLIN         CLEAR     71  64  78 S3        30.02F
6HR MIN TEMP:  71; 6HR MAX TEMP:  83;


$$
MOZ032>034-039>042-045>050-055>058-069>072-260100-
...CENTRAL MISSOURI...

CITY           SKY/WX    TMP DP  RH WIND       PRES   REMARKS
COLUMBIA       CLEAR     74  53  48 NE5       30.02S
6HR MIN TEMP:  72; 6HR MAX TEMP:  81;

JEFFERSON CITY CLEAR     69  57  65 CALM      30.00F
6HR MIN TEMP:  69; 6HR MAX TEMP:  82;

ROLLA          CLEAR     62  56  80 CALM      30.01F
6HR MIN TEMP:  62; 6HR MAX TEMP:  80;

SEDALIA        CLEAR     73  59  61 CALM      30.03S HAZE
6HR MIN TEMP:  72; 6HR MAX TEMP:  81;

OSAGE BEACH    CLEAR     66  59  77 CALM      30.02R

$$
MOZ051-052-059>065-260100-
...EAST CENTRAL MISSOURI...

CITY           SKY/WX    TMP DP  RH WIND       PRES   REMARKS
ST LOUIS INTL  CLEAR     70  54  56 CALM      30.02R
6HR MIN TEMP:  69; 6HR MAX TEMP:  82;

SPIRIT OF STL  CLEAR     64  55  72 CALM      30.00S
6HR MIN TEMP:  63; 6HR MAX TEMP:  81;

ST CHARLES     CLEAR     67  52  58 CALM      30.00S HAZE
6HR MIN TEMP:  67; 6HR MAX TEMP:  80;


$$
MOZ072>076-082>087-097>100-106>115-260100-
...SOUTH CENTRAL AND SOUTHEAST MISSOURI...

CITY           SKY/WX    TMP DP  RH WIND       PRES   REMARKS
CAPE GIRARDEAU CLEAR     67  60  78 CALM      30.01R
6HR MIN TEMP:  67; 6HR MAX TEMP:  82;

FARMINGTON     CLEAR     66  55  68 CALM      30.04S
6HR MIN TEMP:  66; 6HR MAX TEMP:  81;

POPLAR BLUFF   CLEAR     71  64  78 CALM      30.00R HAZE
6HR MIN TEMP:  70; 6HR MAX TEMP:  83;

WEST PLAINS    CLEAR     69  59  70 CALM      30.05R
6HR MIN TEMP:  68; 6HR MAX TEMP:  82;


$$



USA.gov is the U.S. government's official web portal to all federal, state and local government web resources and services.